Location: Beaufort Park
(39.1418°N, 76.9433°W)
Time: 00:24:11
(UTC+00:00)

Cosmos 1939 Rocket - Pass Details

Date: 29 October 2020
Orbit: 533 x 584 km, 97.4° (Epoch: 03 December)

Event Time Altitude Azimuth Distance (km) Brightness Sun altitude
Rises 23:15:53 0° 165° (SSE) 2,731 6.3 -13.4°
Reaches altitude 10° 23:18:01 10° 165° (SSE) 1,832 5.4 -13.8°
Maximum altitude 23:21:59 83° 78° (ENE) 559 2.7 -14.5°
Drops below altitude 10° 23:25:55 10° 350° (N) 1,817 5.5 -15.3°
Sets 23:28:01 0° 350° (N) 2,707 6.4 -15.7°
